User: anonymous   Login
Location: Albany
(35.0000°S, 118.0000°E)
Time: 20:56:21
(UTC-05:00)
Language:

Cosmos 2227 Rocket - Orbit

View from above orbital plane
View from above orbital plane
View from above satellite
View from above satellite

Ground track
Ground track

The orbit data is extracted from the following two-line orbital elements,

1 22285U 92093B   18048.46474968 -.00000122  00000-0 -38502-4 0  9990
2 22285  71.0217  57.7469 0002132 140.4062 219.7217 14.15022919297238
Epoch (UTC): 17 February 2018 11:09:14
Eccentricity: 0.0002132
inclination: 71.0217°
perigee height: 840 km
apogee height: 844 km
right ascension of ascending node: 57.7469°
argument of perigee: 140.4062°
revolutions per day: 14.15022919
mean anomaly at epoch: 219.7217°
orbit number at epoch: 29723

The dashed part of the orbit path shows where the satellite is in the earth's shadow,  

DLR